Regional Weather Roundup
Issued by NWS Boston, MA

Home | Current Version | Previous Version | Text Only | Print | Product List | Glossary On
Versions: 1 2 3 4 5 6 7 8 9 10 11 12 13 14 15 16 17 18 19 20 21 22 23 24 25 26 27 28 29 30 31 32 33 34 35 36 37 38 39 40 41 42 43 44 45 46 47 48 49 50
000
ASUS41 KBOX 210610
RWRBOX

REGIONAL WEATHER ROUNDUP
NATIONAL WEATHER SERVICE TAUNTON MA
200 AM EDT TUE APR 21 2015

NOTE:  "FAIR" INDICATES FEW OR NO CLOUDS BELOW 12,000 FEET WITH NO
SIGNIFICANT WEATHER AND/OR OBSTRUCTIONS TO VISIBILITY.  THE FOLLOWING
OBSERVATION LOCATIONS DO NOT REPORT PRESENT WEATHER...PROVINCETOWN...
SMITHFIELD...BLOCK ISLAND...KEENE...AND OXFORD.

MAZALL-210700-
EASTERN MASSACHUSETTS

CITY           SKY/WX    TMP DP  RH WIND       PRES   REMARKS
BOSTON         FOG       50  50 100 SE13      29.65F VSB 1
6HR MIN TEMP:  47; 6HR MAX TEMP:  51; 6HR PCP:  0.25;

BEVERLY        FOG       48  46  93 SE12      29.67F VSB 3/4
LAWRENCE       CLOUDY    51  50  96 SE10G21   29.68F
BEDFORD        CLOUDY    52  52 100 CALM      29.64F FOG
BLUE HILL        N/A     54  54 100 SE16G30   29.63F
NORWOOD        NOT AVBL
MARSHFIELD     CLOUDY    52  52 100 SE13G23   29.69F FOG
PLYMOUTH       CLOUDY    55  55 100 SE10G16   29.67F FOG
TAUNTON        LGT RAIN  57  55  93 SE13G23   29.65F FOG
NEW BEDFORD    FOG       53  53 100 SE12      29.64F VSB 3/4
$$

MAZALL-210700-
CAPE COD AND THE ISLANDS

CITY           SKY/WX    TMP DP  RH WIND       PRES   REMARKS
FALMOUTH       FOG       54  54 100 SE12      29.69F VSB 1/2
HYANNIS        CLOUDY    50  50 100 SE10G18   29.67F FOG
CHATHAM        LGT RAIN  48  48 100 SE10G29   29.72F FOG
PROVINCETOWN   CLOUDY   N/A N/A N/A SE22G29   29.70F
NANTUCKET      LGT RAIN  51  50  96 SE20      29.70F VSB 1/2
MARTHAS VNYRD  FOG       51  51 100 S16G25    29.67F VSB 1/2
$$

MAZALL-210700-
CENTRAL AND WESTERN MASSACHUSETTS

CITY           SKY/WX    TMP DP  RH WIND       PRES   REMARKS
WORCESTER      LGT RAIN  48  47  96 NE5       29.63F VSB 1/4
6HR MIN TEMP:  46; 6HR MAX TEMP:  49; 6HR PCP:  0.37;

FITCHBURG      CLOUDY    49  47  93 W3        29.65F FOG
ORANGE         RAIN      47  46  97 N5        29.64F
SPRINGFIELD    CLOUDY    49  48  97 N6        29.59F
WESTFIELD      LGT RAIN  49  47  93 N10       29.60F FOG
NORTH ADAMS    CLOUDY    50  44  80 E21       29.58F
PITTSFIELD     CLOUDY    47  45  93 NE7       29.56F
$$

RIZALL-210700-
RHODE ISLAND

CITY           SKY/WX    TMP DP  RH WIND       PRES   REMARKS
PROVIDENCE     FOG       51  51 100 S12       29.64F VSB 3/4
6HR MIN TEMP:  51; 6HR MAX TEMP:  56; 6HR PCP:  0.10;

NEWPORT        FOG       49  49 100 SE18G25   29.64F VSB 1/2
BLOCK ISLAND   CLOUDY    48  46  93 S14       29.63F VSB 1/4
SMITHFIELD     CLOUDY    52  46  82 SE7       29.63F VSB 1/4
WESTERLY       FOG       49  49 100 SE10      29.63F VSB 1/4
$$

CTZALL-210700-
CONNECTICUT

CITY           SKY/WX    TMP DP  RH WIND       PRES   REMARKS
BRADLEY INTL   DRIZZLE   50  48  93 N8        29.59F FOG
6HR MIN TEMP:  50; 6HR MAX TEMP:  51; 6HR PCP:  0.12;

HARTFORD       CLOUDY    51  50  96 VRB6      29.59F FOG
BRIDGEPORT     TSTM      50  50 100 NE10      29.59R FOG
DANBURY        CLOUDY    54  54 100 VRB3      29.58S THUNDER FOG
GROTON         FOG       50  50 100 E6        29.61F VSB 1/4
NEW HAVEN      TSTM      53  52  96 VRB6      29.60R FOG
CHESTER        LGT RAIN  52  52 100 E3        29.58F VSB<1/4
MERIDEN        HVY RAIN  54  52  93 SW5       29.62S FOG
WILLIMANTIC    LGT RAIN  55  54  96 CALM      29.62F
OXFORD         CLOUDY    55  50  82 S9G17     29.61R THUNDER
$$

MEZ002-015-021-024-NHZ003-005-008-011-012-014-VTZ005-008-210700-
NORTHERN NEW ENGLAND

CITY           SKY/WX    TMP DP  RH WIND       PRES   REMARKS
PORTLAND ME    LGT RAIN  47  44  90 E21G28    29.77F FOG
6HR MIN TEMP:  45; 6HR MAX TEMP:  48; 6HR PCP:  2.04;

BANGOR ME      LGT RAIN  41  39  93 SE18G29   29.97F FOG
CONCORD NH     CLOUDY    47  45  93 NE7       29.69F FOG
MANCHESTER NH  LGT RAIN  49  46  90 NE7       29.66F FOG
NASHUA NH      LGT RAIN  50  49  96 CALM      29.67F FOG
PORTSMOUTH NH  LGT RAIN  47  46  95 SE14G22   29.70F
JAFFREY NH     LGT RAIN  45  44  97 VRB6      29.65F FOG
KEENE NH       CLOUDY    46  45  93 N5        29.65F
BURLINGTON VT  CLOUDY    52  41  66 SE13      29.59F
MT. WASHINGTON FRZ RAIN  28  28 100 SE40G56     N/A  VSB 0   WCI  11
$$

NYZ052-076-210700-
EASTERN NEW YORK

CITY           SKY/WX    TMP DP  RH WIND       PRES   REMARKS
ALBANY         TSTM      52  48  86 NW9       29.59R FOG
6HR MIN TEMP:  52; 6HR MAX TEMP:  54; 6HR PCP:  0.03;

NEW YORK CITY  CLOUDY    54  52  93 S6        29.56F
6HR MIN TEMP:  50; 6HR MAX TEMP:  54; 6HR PCP:  0.11;

$$

ANZALL-210700-
MARINE OBSERVATIONS

STATION/POSITION TIME  TEMP    WIND        PRES    VSBY  WAVE
                       AIR SEA DIR/SP/G                  HT/PER
                 (UTC) (F)     (DEG/KT/KT) (MB)    (MI)  (FT/S)
BOSTON BUOY      0550   45 41  160/ 17/ 19 1004.7F        10/ 9
BUZZARDS BAY     0600          150/ 20/ 22 1004.1F
NANTUCKET SOUND  0550   53 46  150/ 17/ 23 1005.2F         4/ 5
MASS BAY-STELLWA 0504   45 41  130/ 25/ 31   N/A    1 1/8 12/ 8
ISLE OF SHOALS   0600   46     130/ 34/ 38 1003.1F
S OF BLOCK IS    0508      40                N/A          13/10
$$

......................KEY.........................
  SKY/WX - SKY CONDITION/PRESENT WEATHER
  TMP    - TEMPERATURE IN FAHRENHEIT
  DWPT   - DEWPOINT IN FAHRENHEIT
  RH     - RELATIVE HUMIDITY IN PERCENT
  WIND   - DIRECTION AND SPEED IN MPH
  PRES   - MEAN SEA LEVEL PRESSURE IN INCHES OF HG
  WCI    - WIND CHILL INDEX
  VSB    - VISIBILITY IN MILES
  HX     - HEAT INDEX
  TC     - TEMPERATURE IN CELSIUS
  VRB    - VARIABLE WIND DIRECTION
  N/A    - NOT AVAILABLE


USA.gov is the U.S. government's official web portal to all federal, state and local government web resources and services.